Waarnemingen

Advertentie
Mijn weer
Pantelleria, Italië (16470): temperatuur & dauwpunt: 22.05.2018 07:00:00 - 28.05.2018 07:00:00 (CEST)Pantelleria, Italië (16470): windsnelheid: 22.05.2018 07:00:00 - 28.05.2018 07:00:00 (CEST)Pantelleria, Italië (16470): windrichting: 22.05.2018 07:00:00 - 28.05.2018 07:00:00 (CEST)Pantelleria, Italië (16470): luchtdruk: 22.05.2018 07:00:00 - 28.05.2018 07:00:00 (CEST)Pantelleria, Italië (16470): zicht: 22.05.2018 07:00:00 - 28.05.2018 07:00:00 (CEST)Pantelleria, Italië (16470): Zonneschijnduur: 22.05.2018 07:00:00 - 28.05.2018 07:00:00 (CEST)
Datum & Tijd tt [°C] td [°C] ff [km/u] ff [kn] dd ppp [hPa] vv [km] sd [min]
28.05.2018 07:00:00 18,8 17,1 4 2 ZZO 1018,1 10 0
28.05.2018 06:00:00 - - - - - - - -
28.05.2018 05:00:00 - - - - - - - -
28.05.2018 04:00:00 - - - - - - - -
28.05.2018 03:00:00 - - - - - - - -
28.05.2018 02:00:00 - - - - - - - -
28.05.2018 01:00:00 - - - - - - - -
28.05.2018 00:00:00 - - - - - - - -
27.05.2018 23:00:00 - - - - - - - -
27.05.2018 22:00:00 - - - - - - - -
27.05.2018 21:00:00 - - - - - - - -
27.05.2018 20:00:00 24,6 16,1 29 16 ZZO 1015,2 20 60
27.05.2018 19:00:00 25,0 15,6 31 17 Z 1015,3 25 60
27.05.2018 18:00:00 25,2 15,2 34 18 Z 1015,4 25 60
27.05.2018 17:00:00 25,6 13,5 29 16 Z 1016,5 25 60
27.05.2018 16:00:00 27,8 14,4 26 14 Z 1016,4 25 42
27.05.2018 15:00:00 27,0 14,4 28 15 ZZO 1016,5 20 48
27.05.2018 14:00:00 26,8 14,2 28 15 ZZO 1017,4 20 60
27.05.2018 13:00:00 26,0 13,5 28 15 Z 1017,5 20 24
27.05.2018 12:00:00 25,2 15,2 29 16 Z 1017,9 20 54
27.05.2018 11:00:00 24,8 15,4 28 15 Z 1018,5 20 60
27.05.2018 10:00:00 23,2 15,3 24 13 Z 1018,7 20 18
27.05.2018 09:00:00 22,0 18,8 31 17 Z 1018,8 20 36
27.05.2018 08:00:00 21,4 18,2 18 10 Z 1018,0 20 30
27.05.2018 07:00:00 21,8 11,2 5 3 Z 1017,3 20 0
27.05.2018 06:00:00 - - - - - - - -
27.05.2018 05:00:00 - - - - - - - -
27.05.2018 04:00:00 - - - - - - - -
27.05.2018 03:00:00 - - - - - - - -
27.05.2018 02:00:00 - - - - - - - -
27.05.2018 01:00:00 - - - - - - - -
27.05.2018 00:00:00 - - - - - - - -
26.05.2018 23:00:00 - - - - - - - -
26.05.2018 22:00:00 - - - - - - - -
26.05.2018 21:00:00 - - - - - - - -
26.05.2018 20:00:00 22,6 20,0 11 6 ZZW 1017,2 20 42
26.05.2018 19:00:00 24,0 20,3 13 7 ZZW 1017,0 25 60
26.05.2018 18:00:00 25,0 20,5 11 6 ZZW 1016,8 25 60
26.05.2018 17:00:00 23,0 16,8 9 5 NNO 1016,9 25 60
26.05.2018 16:00:00 23,6 18,0 9 5 NNO 1017,0 25 60
26.05.2018 15:00:00 23,2 21,5 8 4 NNW 1017,9 25 60
26.05.2018 14:00:00 24,0 21,5 9 5 WNW 1017,8 25 60
26.05.2018 13:00:00 22,0 21,5 11 6 NO 1018,0 20 60
26.05.2018 12:00:00 24,0 21,5 11 6 W 1017,7 25 60
26.05.2018 11:00:00 23,2 21,8 11 6 ONO 1017,6 30 60
26.05.2018 10:00:00 22,0 20,3 5 3 N 1017,1 25 60
26.05.2018 09:00:00 22,4 12,7 5 3 ZW 1016,9 20 60
26.05.2018 08:00:00 20,2 16,8 5 3 WZW 1017,0 15 18
26.05.2018 07:00:00 16,4 14,2 0 0 N 1016,4 11 0
26.05.2018 06:00:00 - - - - - - - -
26.05.2018 05:00:00 - - - - - - - -
26.05.2018 04:00:00 - - - - - - - -
26.05.2018 03:00:00 - - - - - - - -
26.05.2018 02:00:00 - - - - - - - -
26.05.2018 01:00:00 - - - - - - - -
26.05.2018 00:00:00 - - - - - - - -
25.05.2018 23:00:00 - - - - - - - -
25.05.2018 22:00:00 - - - - - - - -
25.05.2018 21:00:00 - - - - - - - -
25.05.2018 20:00:00 18,6 17,8 8 4 NNO 1015,3 12 60
25.05.2018 19:00:00 20,0 19,0 9 5 NO 1015,3 15 60
25.05.2018 18:00:00 20,0 19,2 11 6 NNO 1015,9 15 60
25.05.2018 17:00:00 20,6 19,8 9 5 NNO 1015,9 20 60
25.05.2018 16:00:00 21,6 19,5 11 6 NNW 1015,9 25 60
25.05.2018 15:00:00 22,0 18,0 9 5 NW 1015,8 30 60
25.05.2018 14:00:00 23,4 16,9 9 5 NNW 1015,9 30 60
25.05.2018 13:00:00 22,2 16,0 9 5 N 1016,2 25 60
25.05.2018 12:00:00 22,0 14,6 8 4 N 1016,5 25 60
25.05.2018 11:00:00 20,4 16,4 5 3 NNO 1016,5 20 60
25.05.2018 10:00:00 19,0 17,0 9 5 NNO 1016,6 15 60
25.05.2018 09:00:00 18,2 16,2 9 5 NO 1016,5 15 6
25.05.2018 08:00:00 17,2 15,5 11 6 NO 1016,5 11 0
25.05.2018 07:00:00 16,8 15,2 4 2 ONO 1016,4 15 0
25.05.2018 06:00:00 - - - - - - - -
25.05.2018 05:00:00 - - - - - - - -
25.05.2018 04:00:00 - - - - - - - -
25.05.2018 03:00:00 - - - - - - - -
25.05.2018 02:00:00 - - - - - - - -
25.05.2018 01:00:00 - - - - - - - -
25.05.2018 00:00:00 - - - - - - - -
24.05.2018 23:00:00 - - - - - - - -
24.05.2018 22:00:00 - - - - - - - -
24.05.2018 21:00:00 - - - - - - - -
24.05.2018 20:00:00 18,8 17,7 11 6 NO 1017,2 20 60
24.05.2018 19:00:00 19,8 16,2 11 6 NO 1017,1 25 60
24.05.2018 18:00:00 20,0 16,0 11 6 NNO 1017,3 25 60
24.05.2018 17:00:00 22,0 15,8 9 5 NNW 1017,3 25 60
24.05.2018 16:00:00 21,4 15,9 9 5 N 1017,9 25 60
24.05.2018 15:00:00 22,0 15,1 11 6 NW 1018,1 25 60
24.05.2018 14:00:00 22,6 16,6 11 6 W 1018,5 20 60
24.05.2018 13:00:00 21,6 18,0 11 6 W 1019,1 16 60
24.05.2018 12:00:00 20,8 18,5 9 5 WNW 1019,2 12 60
24.05.2018 11:00:00 19,6 17,2 9 5 NNO 1019,3 8 60
24.05.2018 10:00:00 18,8 16,2 5 3 NNO 1019,3 8 60
24.05.2018 09:00:00 17,6 15,4 8 4 NO 1019,3 8 18
24.05.2018 08:00:00 16,0 13,8 5 3 N 1019,3 8 0
24.05.2018 07:00:00 15,4 13,2 0 0 N 1019,4 6 0
24.05.2018 06:00:00 - - - - - - - -
24.05.2018 05:00:00 - - - - - - - -
24.05.2018 04:00:00 - - - - - - - -
24.05.2018 03:00:00 - - - - - - - -
24.05.2018 02:00:00 - - - - - - - -
24.05.2018 01:00:00 - - - - - - - -
24.05.2018 00:00:00 - - - - - - - -
23.05.2018 23:00:00 - - - - - - - -
23.05.2018 22:00:00 - - - - - - - -
23.05.2018 21:00:00 - - - - - - - -
23.05.2018 20:00:00 17,0 15,2 15 8 NW 1018,6 10 0
23.05.2018 19:00:00 17,2 15,4 16 9 NW 1018,5 10 48
23.05.2018 18:00:00 17,8 16,0 15 8 NW 1018,5 10 18
23.05.2018 17:00:00 18,6 16,8 16 9 NW 1019,1 10 60
23.05.2018 16:00:00 18,6 16,8 18 10 NW 1019,2 10 60
23.05.2018 15:00:00 19,0 17,0 21 11 NW 1019,3 8 60
23.05.2018 14:00:00 18,4 16,2 24 13 WNW 1019,3 8 60
23.05.2018 13:00:00 18,8 16,4 24 13 WNW 1019,1 8 60
23.05.2018 12:00:00 18,4 16,0 24 13 WNW 1018,9 8 60
23.05.2018 11:00:00 18,2 15,6 22 12 WNW 1018,7 8 48
23.05.2018 10:00:00 17,4 14,9 24 13 WNW 1018,4 8 18
23.05.2018 09:00:00 16,6 14,1 16 9 W 1018,3 6 0
23.05.2018 08:00:00 16,2 13,9 18 10 W 1017,7 8 0
23.05.2018 07:00:00 15,6 13,3 15 8 WNW 1017,4 8 0
23.05.2018 06:00:00 - - - - - - - -
23.05.2018 05:00:00 - - - - - - - -
23.05.2018 04:00:00 - - - - - - - -
23.05.2018 03:00:00 - - - - - - - -
23.05.2018 02:00:00 - - - - - - - -
23.05.2018 01:00:00 - - - - - - - -
23.05.2018 00:00:00 - - - - - - - -
22.05.2018 23:00:00 - - - - - - - -
22.05.2018 22:00:00 - - - - - - - -
22.05.2018 21:00:00 - - - - - - - -
22.05.2018 20:00:00 16,2 13,9 18 10 N 1014,7 0,5 0
22.05.2018 19:00:00 16,8 14,4 22 12 NO 1014,3 0,1 0
22.05.2018 18:00:00 17,2 14,8 16 9 NNO 1014,5 0,1 0
22.05.2018 17:00:00 17,4 15,2 16 9 NNO 1014,0 0,2 0
22.05.2018 16:00:00 17,4 15,2 8 4 N 1014,1 0,7 0
22.05.2018 15:00:00 17,6 15,4 0 0 N 1015,2 6 0
22.05.2018 14:00:00 17,8 15,6 5 3 ONO 1015,0 6 0
22.05.2018 13:00:00 17,6 15,4 9 5 NO 1014,7 2,0 0
22.05.2018 12:00:00 17,4 15,2 2 1 NNW 1014,9 1,5 0
22.05.2018 11:00:00 17,8 15,8 5 3 NO 1014,3 0,2 0
22.05.2018 10:00:00 17,6 15,6 8 4 NNO 1014,0 1,5 0
22.05.2018 09:00:00 17,6 15,6 9 5 NO 1014,0 0,6 0
22.05.2018 08:00:00 17,8 16,1 5 3 NNW 1013,6 10 0
22.05.2018 07:00:00 17,0 15,5 8 4 NW 1013,1 10 0

tt = temperatuur
td = dauwpunt
ff = windsnelheid
dd = windrichting
ppp = luchtdruk
vv = zicht
sd = Zonneschijnduur

Weerstations in de omgeving